Search your local weather  

 

Hazardous Weather Conditions

No active alerts for HOUSTON, TEXAS

Current Conditions: HOUSTON, TEXAS

Fair


79.0 F

Last Updated on Oct 23 2019, 3:53 pm CDT
Humidity: 41%
Wind Speed: SE 13.8 G 21.9 mph
Barometer 30.02 in
Dewpoint: 53.1 F
Visibility: 10.00 mi
Precip: --
Heat Index: NA
Wind Chill: NA
Current conditions at:

Houston, Hooks Memorial Airport, TX (KDWH)

Lat: 30.0675 Lon: -95.55611

Local Radar Image active severe weather and emergency alerts image image weather storm and storm spotter reports image weather observation monitoring service image
Local
Radar
Active
Alerts
Storm Reports Weather
Monitoring

5 Day Forecast for HOUSTON, TEXAS

Wednesday

Mostly Sunny

High 81 °F
Wednesday
Night
Scattered T-storms
Low 65 °F
Thursday

Isolated T-storm

High 82 °F
Thursday
Night
T-storms Likely
Low 65 °F
Friday

T-storms Likely

High 67 °F
Friday
Night
Chance of Scattered T-storms
Low 65 °F
Saturday

Isolated T-storm

High 69 °F
Saturday
Night
Mostly Clear

Low 65 °F
Sunday

Clear

High 74 °F

Sign-up For Email & Text Message Weather Alert Notification Services


Advertise Here

Observation History for HOUSTON, TEXAS


Time Wind
(mph)
Vis
(mi)
Weather Precip (in) Temperature (F) Relative
Humidity
Wind
Chill
(°F)
Heat
Index
(°F)
Pressure
Air Dwpt altimeter
(in)
sea level
(mb)
3:53 pm CDT SE 13.8 G 21.9 10.00 Fair -- 79.0 53.1 41% NA NA 30.02 1016.4
2:53 pm CDT SE 12.7 G 20.7 10.00 Fair -- 80.0 52.0 38% NA 80 30.04 1017.1
1:53 pm CDT SE 15.0 G 24.2 10.00 Fair -- 80.0 51.1 37% NA 80 30.06 1017.9
12:53 pm CDT SE 16.1 G 24.2 10.00 Fair -- 79.0 52.0 39% NA NA 30.10 1019.0
11:53 am CDT SE 12.7 G 20.7 10.00 Fair -- 77.0 54.0 45% NA NA 30.12 1019.9
10:53 am CDT SE 9.2 10.00 Fair -- 73.0 53.1 50% NA NA 30.13 1020.2
9:53 am CDT E 4.6 10.00 Fair -- 68.0 52.0 57% NA NA 30.13 1020.3
8:53 am CDT E 4.6 10.00 Fair -- 60.0 51.1 72% 60 NA 30.12 1019.9
7:53 am CDT N 0.0 10.00 Fair -- 51.0 46.9 86% NA NA 30.11 1019.6
6:53 am CDT N 0.0 10.00 Fair -- 50.0 46.0 86% NA NA 30.11 1019.5
5:53 am CDT N 0.0 10.00 Fair -- 50.0 46.0 86% NA NA 30.11 1019.5
4:53 am CDT E 3.5 10.00 Fair -- 50.0 46.0 86% NA NA 30.11 1019.4
3:53 am CDT N 0.0 10.00 Fair -- 50.0 46.0 86% NA NA 30.11 1019.6
2:53 am CDT N 0.0 10.00 Fair -- 51.0 46.0 83% NA NA 30.12 1019.8
1:53 am CDT N 0.0 10.00 Fair -- 52.0 46.0 80% NA NA 30.13 1020.0
12:53 am CDT N 0.0 10.00 Fair -- 53.0 46.0 77% NA NA 30.13 1020.2
11:53 pm CDT N 0.0 10.00 Fair -- 54.0 46.0 75% NA NA 30.14 1020.4
10:53 pm CDT E 5.8 10.00 Fair -- 59.0 46.9 64% 58 NA 30.14 1020.4
9:53 pm CDT E 3.5 10.00 Fair -- 58.0 46.9 67% NA NA 30.14 1020.4
8:53 pm CDT N 0.0 10.00 Fair -- 58.0 46.0 65% NA NA 30.14 1020.4
7:53 pm CDT N 0.0 10.00 Fair -- 60.0 45.0 58% NA NA 30.14 1020.4
6:53 pm CDT E 3.5 10.00 Fair -- 66.0 42.1 42% NA NA 30.14 1020.4
5:53 pm CDT E 8.1 10.00 Fair -- 75.0 41.0 29% NA NA 30.13 1020.0
4:53 pm CDT NE 6.9 10.00 Fair -- 78.0 39.9 26% NA NA 30.13 1020.1

Regional Weather Observation

John Dunn Helistop, TX (KMCJ)

Fair
82.0 F

Houston, Houston Hobby Airport, TX (KHOU)

A Few Clouds
81.0 F

Houston Southwest Airport, TX (KAXH)

Fair
79.0 F

Conroe, Montgomery County Airport, TX (KCXO)

Fair
79.0 F

Houston, Pearland Regional Airport, TX (KLVJ)

Fair
80.0 F

Cleveland, TX (K6R3)

Fair
77.0 F

Advertise Here

Advertise Here